Simultaneous Nadir Overpasses (SNOs) Predictions

Prediction of SNOs between AQUA and GOES-15 Satellite Orbit:

Table of predicted SNOs for the next 14.0 days since TLE Epoch: 11/29/2013
Index Date Time (AQUA) AQUA Lat,Lon GOES-15 Lat,Lon Distance(km) Time Diff (sec)
1 11/30/2013 22:35:50 0.10,-135.07 0.04,-135.41 38.32 80
2 12/02/2013 22:23:39 0.72,-132.11 0.03,-135.39 372.70 80
3 12/03/2013 10:44:55 0.35,-137.28 -0.06,-135.43 209.94 80
4 12/05/2013 10:32:44 -0.31,-134.32 -0.05,-135.40 123.69 80
5 12/05/2013 22:54:07 -0.81,-139.51 0.07,-135.35 472.57 80
6 12/07/2013 10:20:32 -0.93,-131.36 -0.05,-135.37 457.06 80
7 12/07/2013 22:41:55 -0.18,-136.55 0.07,-135.32 139.24 80
8 12/09/2013 22:29:43 0.41,-133.58 0.07,-135.29 194.03 80
9 12/10/2013 10:50:58 0.63,-138.74 -0.09,-135.32 389.02 80
10 12/12/2013 10:38:45 -0.00,-135.78 -0.08,-135.28 55.90 80




NCC Satellite Simultaneous Nadir Overpasses (SNOs) Prediction Service
